Voltar ao catálogo

STARLINK-31557

AtivoComunicaçõesVLEO
NORAD 59357·PAYLOAD·🇺🇸 United States

Lançado Mar 31, 2024 de Cape Canaveral Space Force Station

Loading…

Próximas Passagens (próximas 24 horas)

TLE

AtualizadoSource: CelesTrak SupGP

Época: Sep 15, 2026, 03:08 UTC

1 59357C 24060K   26258.13104167 -.00017761  00000+0 -64337-3 0  2584
2 59357  43.0024 265.8983 0001315 267.0736  47.5560 15.27584119    17

Acompanhe STARLINK-31557 em tempo real com AllMySat

Download on the App Store